Tracking 30262 objects as of 17-Feb-2025
HD Live streaming from Space Station
objects crossing your sky now

METEOR 2-8 DEB

Track METEOR 2-8 DEB now!
10-day predictions


NORAD ID: 36319
Int'l Code: 1982-025D
Perigee: 790.4 km
Apogee: 819.8 km
Inclination: 82.5 °
Period: 100.8 minutes
Semi major axis: 7176 km
RCS: 0.0062 m2 (small)
Launch date: March 25, 1982
Source: Commonwealth of Independent States (former USSR) (CIS)
Launch site: PLESETSK MISSILE AND SPACE COMPLEX (PKMTR)

Note: This is SATELLITE DEBRIS
Your satellite tracking list
Your tracking list is empty




NASA's NSSDC Master Catalog

Two Line Element Set (TLE):
1 36319U 82025D   25039.24388930  .00004241  00000-0  16950-2 0  9999
2 36319  82.5129 231.5205 0020493  34.4323 325.8184 14.28143603123386
Source of the keplerian elements: AFSPC